Location: Tamazert
(32.6352°N, 5.2072°W)
Time: 16:16:13
(UTC+00:00)

CZ-2C R/B - Pass Details

Date: 22 May 2022
Orbit: 667 x 784 km, 98.3° (Epoch: 06 July)

Event Time Altitude Azimuth Distance (km) Brightness Sun altitude
Rises 04:11:16 0° 6° (N) 3,264 6.4 -13.0°
Reaches altitude 10° 04:13:39 10° 1° (N) 2,323 5.5 -12.6°
Maximum altitude 04:18:37 51° 287° (WNW) 948 2.7 -11.7°
Enters shadow 04:23:08 12° 212° (SSW) 2,140 4.3 -11.0°
